This demonstration page uses our WeatherBlox Daily Observations layout. Learn more.

Left ArrowRight Arrow

39.08367, -84.50855

Hourly Observations for December 18, 2019

Temp ( °F °C ) Dew Point ( °F °C ) Humidity (%) Winds ( mph kmh ) Pressure ( in mb ) Visibility ( mi km ) Precip ( " mm )
12:53 am 00:53 Clear 26 -3.3 21 -6.1 81 81 WSW 8 13 30.13 1020 10 16 N/A
1:53 am 01:53 Clear 27 -2.8 22 -5.6 81 81 W 9 15 30.13 1020 10 16 N/A
2:53 am 02:53 Partly Cloudy 26 -3.3 21 -6.1 81 81 W 8 13 30.14 1021 10 16 N/A
3:01 am 03:01 Mostly Cloudy 27 -2.8 21 -6.1 78 78 W 9 15 30.16 1021 10 16 N/A
3:53 am 03:53 Cloudy 26 -3.3 20 -6.7 78 78 NW 12 19 30.16 1021 10 16 N/A
4:53 am 04:53 Cloudy 24 -4.4 18 -7.8 77 77 NW 7 11 30.19 1022 9 14 N/A
5:53 am 05:53 Cloudy 25 -3.9 19 -7.2 78 78 W 9 15 30.19 1022 10 16 N/A
6:53 am 06:53 Cloudy 25 -3.9 19 -7.2 78 78 W 9 15 30.22 1023 9 14 N/A
7:53 am 07:53 Cloudy 25 -3.9 19 -7.2 78 78 W 14 22 30.24 1024 9 14 N/A
8:53 am 08:53 Cloudy 24 -4.4 19 -7.2 81 81 W 12 19 30.26 1025 7 11 N/A
9:53 am 09:53 Cloudy 25 -3.9 19 -7.2 78 78 W 12 19 30.28 1025 9 14 N/A
10:53 am 10:53 Cloudy 27 -2.8 19 -7.2 72 72 W 14 22 30.29 1026 10 16 0.00 0.00
11:03 am 11:03 Cloudy 27 -2.8 19 -7.2 72 72 W 14 22 30.31 1027 10 16 N/A
11:53 am 11:53 Cloudy 27 -2.8 19 -7.2 72 72 W 10 17 30.29 1026 10 16 0.00 0.00
12:53 pm 12:53 Cloudy 29 -1.7 17 -8.3 61 61 WNW 13 20 30.29 1026 10 16 N/A
1:53 pm 13:53 Cloudy 30 -1.1 18 -7.8 61 61 W 13 20 30.29 1026 10 16 N/A
2:53 pm 14:53 Mostly Cloudy 31 -0.6 17 -8.3 56 56 W 15 24 30.30 1026 10 16 N/A
3:53 pm 15:53 Partly Cloudy 30 -1.1 16 -8.9 56 56 W 16 26 30.32 1027 10 16 N/A
4:53 pm 16:53 Mostly Sunny 28 -2.2 15 -9.4 58 58 W 12 19 30.34 1027 10 16 N/A
5:53 pm 17:53 Clear 27 -2.8 14 -10 58 58 W 12 19 30.37 1029 10 16 N/A
6:53 pm 18:53 Clear 27 -2.8 12 -11.1 53 53 WNW 8 13 30.40 1030 10 16 N/A
7:53 pm 19:53 Clear 25 -3.9 12 -11.1 58 58 NW 6 9 30.42 1030 10 16 N/A
8:53 pm 20:53 Clear 23 -5 12 -11.1 63 63 NNW 7 11 30.44 1031 10 16 N/A
9:53 pm 21:53 Clear 21 -6.1 12 -11.1 68 68 N 7 11 30.44 1031 10 16 N/A
10:53 pm 22:53 Clear 20 -6.7 10 -12.2 65 65 N 7 11 30.45 1031 10 16 N/A
11:53 pm 23:53 Clear 20 -6.7 9 -12.8 62 62 NNW 3 6 30.48 1032 10 16 N/A

Powered by AerisWeather